This is the latest recevied weather packets stored in our database for station/object DL7HMX-13. If no packets are shown the sender has not sent any weather packets the latest 10 day(s).
| Time | Temp. | Humidity | Pressure | Rain* | Wind** | Luminosity | Snow |
|---|---|---|---|---|---|---|---|
| 1777639820 | 20.56° C | 34% | 1026.9 hPa | 0 mm | - | 632 W/m² | - |
| 1777639224 | 20° C | 35% | 1027 hPa | 0 mm | - | 638 W/m² | - |
| 1777638626 | 20.56° C | 34% | 1027 hPa | 0 mm | - | 637 W/m² | - |
| 1777638029 | 18.89° C | 36% | 1027.2 hPa | 0 mm | - | 644 W/m² | - |
| 1777637416 | 18.89° C | 37% | 1027.2 hPa | 0 mm | - | 644 W/m² | - |
| 1777636818 | 18.89° C | 36% | 1027.3 hPa | 0 mm | - | 646 W/m² | - |
| 1777636221 | 18.33° C | 37% | 1027.5 hPa | 0 mm | - | 650 W/m² | - |
| 1777635625 | 18.33° C | 37% | 1027.4 hPa | 0 mm | - | 653 W/m² | - |
| 1777635028 | 17.78° C | 37% | 1027.6 hPa | 0 mm | - | 652 W/m² | - |
| 1777634430 | 18.33° C | 36% | 1027.8 hPa | 0 mm | - | 651 W/m² | - |
| 1777633817 | 18.33° C | 37% | 1027.9 hPa | 0 mm | - | 650 W/m² | - |
| 1777633218 | 18.89° C | 36% | 1027.9 hPa | 0 mm | - | 648 W/m² | - |
| 1777632622 | 17.78° C | 36% | 1027.9 hPa | 0 mm | - | 648 W/m² | - |
| 1777632024 | 17.22° C | 37% | 1028.1 hPa | 0 mm | - | 649 W/m² | - |
| 1777631426 | 17.22° C | 37% | 1028.3 hPa | 0 mm | - | 645 W/m² | - |
| 1777630828 | 17.22° C | 37% | 1028.3 hPa | 0 mm | - | 642 W/m² | - |
| 1777630231 | 17.22° C | 37% | 1028.5 hPa | 0 mm | - | 637 W/m² | - |
| 1777629619 | 16.67° C | 37% | 1028.5 hPa | 0 mm | - | 631 W/m² | - |
| 1777629021 | 16.67° C | 36% | 1028.6 hPa | 0 mm | - | 623 W/m² | - |
| 1777628424 | 16.11° C | 37% | 1028.8 hPa | 0 mm | - | 617 W/m² | - |
| 1777627826 | 16.67° C | 37% | 1028.9 hPa | 0 mm | - | 607 W/m² | - |
| 1777627229 | 16.11° C | 37% | 1028.9 hPa | 0 mm | - | 595 W/m² | - |
| 1777626616 | 16.11° C | 37% | 1028.9 hPa | 0 mm | - | 585 W/m² | - |
| 1777626019 | 15.56° C | 37% | 1028.9 hPa | 0 mm | - | 574 W/m² | - |
| 1777625421 | 15.56° C | 37% | 1028.9 hPa | 0 mm | - | 563 W/m² | - |
* Rain latest hour (hover to see other rain measurements)
** Current wind speed in m/s (hover to see current wind gust speed)